Wind_Speed
68 66 64 64 65 65 64 63 62 60 58 58 57 57 58 57 57 58 59 58 58 58 57 56 55 54 53 52 51 50 49 48 47 45 44 42 39 36 34 31 31 32 32 30 28 25 25 25 23 24 23 22 21 19 16 12 8 7 13 17 18 18 17 16 16 15 14 13 12 11 9 7 5 5 6 8 10 11 11 12 13 13 14 15 16 16
70 68 68 68 67 67 66 65 63 61 60 58 57 57 58 58 57 56 57 58 58 57 55 54 54 53 53 52 51 51 50 50 49 47 45 43 41 38 36 34 33 34 34 33 32 29 27 26 24 24 23 21 20 18 15 12 8 8 14 19 20 19 18 17 16 14 13 12 11 9 7 5 4 4 5 6 8 9 10 11 12 13 14 15 16 16
72 72 72 71 69 68 68 67 66 63 62 60 59 59 59 58 57 55 54 54 56 57 54 52 51 51 50 51 51 51 51 50 50 48 47 46 43 41 38 37 36 36 37 37 35 32 29 28 25 24 23 20 19 18 15 12 9 8 14 20 21 20 18 17 16 13 11 10 9 7 5 4 4 4 5 6 8 9 9 10 11 12 14 15 15 15
76 77 77 74 72 70 70 69 68 65 63 62 61 62 62 60 57 55 54 52 53 56 55 52 50 49 48 49 49 49 49 49 49 48 48 47 45 43 41 40 39 38 39 40 38 35 31 29 27 25 22 19 19 17 14 12 9 9 14 21 23 21 19 18 16 14 11 9 7 5 3 2 2 3 5 6 8 9 9 9 10 11 13 14 14 14
81 81 78 75 73 72 70 70 68 66 64 63 63 64 64 62 59 57 55 53 52 53 55 53 49 47 46 47 46 46 47 47 47 47 47 46 46 45 44 42 41 41 41 41 40 37 34 31 28 26 23 19 18 17 14 12 10 9 13 21 26 24 21 19 17 15 12 8 5 3 2 1 1 2 5 6 7 8 8 9 10 10 11 12 12 13
83 82 79 77 76 74 72 71 70 68 67 65 65 67 67 65 62 59 56 54 52 51 52 52 50 47 44 44 45 44 45 45 44 45 45 45 46 46 45 44 44 44 44 44 43 40 36 32 29 27 23 19 18 17 14 12 10 9 12 19 26 27 24 21 20 18 15 12 8 4 2 2 1 3 6 7 6 6 8 9 10 10 10 10 11 11
84 82 80 80 78 76 74 73 72 70 69 67 68 70 70 68 64 61 57 55 53 51 50 49 48 47 44 42 43 43 43 43 43 43 44 45 45 45 45 46 45 45 45 45 45 41 36 32 30 28 23 19 18 16 13 11 9 9 11 16 23 29 29 26 23 21 19 17 14 9 6 5 4 4 6 7 6 6 7 9 10 10 10 10 10 11
83 82 82 81 80 78 76 75 74 72 70 70 72 73 72 70 67 64 60 57 54 52 51 48 47 46 43 41 40 39 39 40 42 43 43 43 44 44 44 45 45 45 45 45 44 40 35 33 31 28 23 20 19 16 13 11 9 8 11 15 20 26 31 32 29 26 22 19 16 13 10 8 6 6 7 7 6 6 7 8 9 9 9 9 10 10
84 83 83 82 81 80 78 77 76 74 73 73 74 74 74 73 70 66 63 60 57 55 52 50 48 46 44 41 38 36 37 39 40 41 41 41 42 42 41 42 42 43 43 43 42 39 36 34 31 28 24 21 20 17 13 11 10 9 11 15 19 22 27 31 32 30 26 21 18 15 13 11 9 9 9 8 7 6 7 7 8 9 9 9 9 9
85 84 84 83 82 82 81 80 78 76 75 76 76 75 75 74 72 68 65 62 59 57 55 53 51 48 46 42 38 37 38 40 39 37 37 38 39 39 39 39 39 39 40 40 39 37 35 34 32 29 24 22 21 18 14 11 10 9 10 14 18 20 23 26 29 29 26 22 19 16 15 13 11 11 11 9 8 7 7 8 9 9 9 8 8 7
86 85 85 85 84 84 83 82 80 79 79 79 77 76 76 76 73 71 68 65 62 59 57 56 54 51 48 44 42 42 42 42 39 36 36 36 36 36 36 36 36 37 37 37 37 36 35 34 33 30 25 23 23 20 15 12 10 10 11 14 18 19 21 23 25 25 24 21 19 18 16 15 13 13 12 10 9 8 8 8 9 9 9 8 7 7
86 86 86 86 86 85 84 82 81 81 81 81 79 78 78 77 75 73 70 67 64 61 60 58 57 54 50 47 47 48 46 44 42 39 37 36 35 34 33 33 33 34 35 36 36 36 35 35 33 30 26 24 23 21 17 13 12 11 12 15 18 19 20 22 22 23 22 22 21 20 18 16 14 14 13 11 10 9 9 9 10 10 9 8 7 6
87 87 87 87 86 85 84 83 83 82 82 82 81 80 79 78 77 75 72 70 67 64 62 60 59 56 53 51 51 51 50 48 45 42 39 37 35 34 32 31 32 33 34 36 36 36 35 35 33 30 28 26 25 23 19 15 14 13 14 16 19 19 20 20 21 22 22 22 22 21 19 17 15 15 14 12 11 10 10 10 10 11 10 9 8 7
89 88 88 88 86 85 85 85 84 83 82 82 82 81 80 79 78 76 74 71 69 67 65 63 61 59 56 55 55 55 54 52 47 42 40 38 36 33 32 32 32 32 34 35 37 37 36 35 33 31 30 28 26 25 22 18 15 15 15 17 19 20 20 21 21 22 23 23 23 22 20 19 17 16 15 14 12 11 11 11 11 11 10 9 8 8
91 90 90 89 87 86 86 86 85 84 83 84 84 82 81 80 79 77 75 73 72 70 69 67 65 62 60 58 59 59 57 53 48 45 41 39 37 35 34 34 34 33 33 34 36 37 36 36 34 33 32 30 28 27 24 20 18 17 17 17 20 22 21 22 22 22 24 25 24 23 22 20 19 18 17 16 14 13 12 12 12 11 11 10 9 8
93 93 92 90 89 88 87 87 86 85 85 86 85 84 83 81 80 78 77 75 74 73 72 70 67 65 63 63 63 63 60 56 52 49 44 41 39 37 36 36 34 32 32 32 34 36 36 36 36 35 34 32 30 29 26 22 19 18 17 18 20 22 22 23 24 23 24 25 25 24 23 21 20 20 19 18 16 14 14 13 13 12 11 10 10 9
96 95 94 92 91 90 88 87 87 88 88 87 86 85 84 82 81 80 79 77 76 75 74 73 70 69 68 68 68 66 63 59 54 50 46 43 41 40 39 37 34 33 32 32 33 35 36 36 36 36 35 33 31 29 26 23 21 20 19 19 20 22 24 25 26 26 25 26 26 25 24 22 22 21 20 19 17 15 15 14 14 13 12 11 11 10
98 97 96 95 94 92 90 89 89 90 89 88 86 86 86 85 83 82 81 79 77 76 76 75 74 73 72 72 70 67 63 59 54 50 47 43 41 41 40 37 35 34 32 31 33 36 37 37 37 38 36 34 31 29 28 25 23 22 21 20 21 23 24 26 27 28 28 27 26 25 24 23 22 21 22 21 20 18 17 16 14 13 13 12 11 11
101 100 99 98 97 96 94 92 92 92 91 89 88 87 87 87 86 84 82 80 78 77 77 77 77 76 75 72 69 66 63 59 56 52 50 46 43 43 42 39 36 34 33 33 33 37 39 39 39 39 38 35 32 31 30 28 26 24 23 22 21 22 24 26 28 30 30 29 28 26 24 22 21 22 23 23 22 20 18 17 15 14 14 13 12 12
102 102 101 100 100 99 97 96 95 95 93 91 90 89 89 88 87 85 83 81 79 78 77 78 80 79 75 72 69 67 64 61 58 55 53 51 47 46 44 41 38 36 35 35 35 36 40 40 39 39 38 35 33 32 31 30 28 25 24 23 21 21 23 27 30 32 32 31 29 28 25 23 22 23 24 25 24 22 20 18 17 16 15 14 14 14
103 103 103 103 103 103 101 100 99 98 96 94 93 91 90 89 87 85 84 83 82 81 80 81 83 80 75 72 71 69 65 63 60 58 56 54 52 50 47 44 42 39 38 37 37 37 39 40 40 40 39 36 33 33 33 32 30 27 25 24 23 22 24 27 29 30 31 31 31 30 28 26 25 25 25 26 25 23 22 20 19 18 17 16 16 16
105 105 105 106 107 106 105 104 102 101 100 98 96 93 91 90 88 86 85 85 84 83 83 84 84 82 77 74 72 69 67 65 62 60 58 57 56 54 51 47 45 44 41 39 39 39 39 40 40 40 40 38 36 36 35 34 32 29 27 26 25 24 24 25 26 28 29 30 30 30 29 28 27 27 27 27 27 26 24 22 21 20 19 18 17 17
106 106 107 108 109 109 109 107 105 104 103 101 99 97 94 92 90 88 87 86 84 83 83 85 85 83 79 76 73 71 69 67 64 62 61 60 59 58 55 51 49 48 45 42 42 42 41 40 41 41 41 41 39 37 36 35 34 31 29 27 27 27 25 25 25 26 28 29 30 30 29 29 29 28 28 28 28 28 27 25 23 22 21 19 19 18
106 107 108 109 110 110 110 110 108 108 106 105 103 100 97 95 93 91 89 88 87 85 85 85 85 83 81 78 75 73 71 69 66 65 64 62 61 61 60 57 54 51 48 44 43 44 43 42 41 42 43 43 41 38 37 37 35 33 31 30 29 28 26 25 25 26 28 29 30 31 30 31 30 30 29 28 28 28 28 27 26 24 23 22 21 20
105 106 108 110 111 111 111 111 110 110 109 108 106 104 101 99 96 94 93 91 89 88 87 86 84 83 83 80 77 75 73 70 69 68 66 65 64 64 64 61 57 53 50 46 44 44 44 43 43 44 44 45 43 39 38 38 37 36 34 32 30 29 27 26 26 26 26 28 29 30 32 32 31 31 30 28 27 27 27 27 27 26 25 24 23 22
106 106 108 110 112 112 112 111 111 111 110 110 109 106 104 102 100 98 96 94 92 90 89 87 84 83 83 81 79 77 75 72 71 70 70 68 66 66 66 64 59 54 50 48 45 43 44 45 44 44 44 45 43 40 38 40 39 37 35 33 31 30 28 26 26 26 25 25 26 28 31 31 31 31 30 28 27 27 26 27 27 26 26 25 24 24
106 107 108 110 112 112 112 111 111 111 110 110 110 109 107 105 103 101 99 97 95 93 91 88 86 84 84 82 80 79 77 74 72 72 72 71 69 68 67 65 61 56 52 49 47 45 46 48 46 45 45 44 42 39 38 40 40 37 35 34 32 31 29 27 26 25 25 24 24 26 27 29 30 29 27 27 27 27 27 27 27 27 27 27 26 26
105 107 108 110 112 113 112 112 112 112 111 111 110 110 109 108 106 104 102 101 99 96 93 90 88 87 85 83 81 81 79 76 74 74 74 74 72 70 69 67 64 60 55 52 50 48 49 51 50 48 46 44 43 40 39 40 39 37 35 34 33 32 30 28 26 25 25 25 25 26 26 26 26 25 24 24 25 26 27 27 27 27 27 27 28 28
101 104 107 110 112 114 114 114 114 114 113 112 111 111 110 110 109 107 106 104 102 100 97 93 90 89 87 84 83 82 80 78 76 76 76 75 74 71 70 69 66 64 61 57 54 51 50 52 54 51 47 45 44 43 42 42 41 39 36 34 33 33 31 28 26 25 25 26 26 26 25 24 24 23 22 22 23 25 27 27 26 25 25 27 27 27
94 98 103 107 111 113 115 115 115 115 115 114 113 112 112 112 111 110 109 108 106 104 100 96 93 91 89 87 85 83 81 80 78 78 77 76 75 73 71 70 68 66 65 61 57 54 52 53 55 55 51 46 45 45 45 45 44 41 39 36 35 33 31 29 28 26 26 26 26 25 24 24 24 23 23 23 24 25 26 25 24 23 23 25 25 24
89 92 97 101 106 111 114 116 116 116 115 115 115 114 114 113 113 113 112 111 109 107 104 100 97 94 91 89 88 86 83 82 81 79 78 77 76 75 74 72 70 69 67 66 61 57 55 54 55 57 55 50 47 48 48 48 46 44 42 40 37 35 32 30 28 28 27 26 25 24 25 26 26 26 25 25 25 26 26 25 24 24 24 23 23 24
87 89 92 95 99 105 110 114 116 117 116 116 116 116 116 115 115 114 114 113 112 109 107 103 100 97 94 93 91 89 86 84 83 81 80 79 77 77 76 74 73 71 70 69 66 61 58 56 56 58 58 54 50 50 51 50 48 47 45 43 40 37 33 31 30 29 29 28 27 27 28 28 28 27 26 25 25 25 25 25 25 25 25 24 24 24
86 88 90 92 94 99 104 108 113 116 116 116 117 117 117 117 116 115 115 114 113 112 110 107 104 100 98 97 96 93 89 87 85 83 81 80 79 78 77 76 75 74 73 72 70 67 61 58 57 58 60 58 54 52 53 52 50 48 46 44 42 39 35 31 30 31 32 32 32 33 32 31 29 28 27 26 25 25 25 25 26 26 25 24 23 23
86 88 89 90 92 95 99 102 107 112 114 116 117 118 118 118 118 117 116 115 115 113 112 110 107 104 102 101 99 97 93 90 87 85 83 81 81 80 79 78 78 77 76 75 72 71 67 61 58 58 59 60 58 55 54 53 52 50 48 46 44 41 37 33 32 34 36 36 37 37 36 35 32 30 29 27 26 25 25 25 26 25 23 22 22 22
85 87 89 90 91 93 96 98 100 103 108 114 118 118 119 120 119 119 118 117 116 115 113 112 110 107 105 104 103 100 97 94 90 87 84 82 82 82 82 82 80 79 79 77 73 72 72 66 61 61 61 61 60 58 56 55 54 52 50 49 48 45 43 40 39 39 40 41 43 41 39 38 36 33 31 29 28 27 27 26 25 24 21 20 20 19
82 84 87 89 90 92 94 95 95 96 102 110 115 117 119 120 120 120 120 118 117 116 114 113 112 110 107 106 105 103 100 97 94 90 86 83 83 84 85 84 83 81 81 82 78 74 74 71 66 64 63 62 60 58 56 54 54 54 54 52 50 48 47 46 45 44 44 45 46 45 42 40 38 35 33 31 31 31 30 28 26 24 21 19 18 17
80 82 85 87 89 90 92 93 93 93 96 103 109 114 117 119 120 121 121 120 119 117 115 114 113 112 110 108 107 106 104 101 97 93 89 85 84 86 86 84 84 83 83 84 83 80 78 76 71 66 64 63 59 55 53 53 53 56 58 56 52 50 49 50 50 48 48 48 48 47 45 42 39 37 35 34 34 34 33 31 29 26 22 21 20 18
77 80 83 85 86 88 91 93 93 92 94 98 103 108 113 117 119 121 121 121 120 118 116 115 114 114 111 109 109 108 107 105 101 97 93 88 86 87 87 85 85 85 84 85 86 85 82 80 77 71 67 66 62 57 56 56 55 57 60 58 55 53 53 54 54 53 51 50 49 48 46 43 41 39 37 36 36 35 34 33 32 29 25 23 21 20
72 76 80 83 84 86 88 91 93 92 93 97 101 104 107 112 116 119 120 120 120 119 117 116 115 115 113 111 110 110 109 108 105 101 98 93 89 89 89 87 86 86 87 87 88 87 86 84 81 76 70 68 67 63 60 58 56 58 62 61 57 57 57 57 57 56 53 51 49 47 47 45 43 41 40 39 38 36 34 33 32 31 29 27 24 22
65 69 73 77 81 84 86 87 89 91 93 96 100 102 103 106 111 115 117 118 119 119 118 117 116 116 115 113 112 111 111 111 108 105 102 98 94 91 91 90 89 89 89 89 90 90 89 87 86 81 73 70 71 70 66 62 58 58 62 64 63 61 60 59 59 58 55 52 49 48 48 47 46 44 43 41 39 37 35 34 33 32 31 30 27 24
59 62 66 70 75 79 83 84 86 87 89 94 99 101 101 102 104 107 110 113 116 118 118 118 117 117 116 115 114 113 113 113 111 108 106 102 98 95 94 92 92 92 92 90 90 93 93 91 89 86 79 75 75 75 73 70 66 63 63 65 66 65 63 62 62 60 55 51 50 49 50 50 49 48 46 44 40 38 37 36 35 33 32 30 27 25
53 56 60 63 67 72 77 81 83 84 85 89 95 99 99 98 98 98 100 106 112 116 118 119 119 118 118 117 115 114 114 114 114 112 109 106 103 99 97 96 95 96 95 91 89 92 95 95 93 90 87 83 79 78 77 75 71 69 69 68 67 67 65 64 64 62 57 53 52 52 51 52 52 51 49 46 43 40 39 39 37 36 33 30 27 26
47 51 54 57 61 65 70 74 78 81 83 86 91 95 97 94 92 91 93 99 106 112 116 118 119 119 119 118 117 116 115 115 116 114 112 109 107 103 101 100 99 98 98 96 92 90 93 97 96 93 91 88 82 79 80 79 75 72 73 73 71 70 68 67 66 65 61 57 55 55 54 55 54 53 51 48 45 43 42 41 40 39 36 33 31 30
40 44 48 52 55 59 63 68 73 77 80 83 86 90 93 91 89 89 91 94 99 106 112 117 118 119 120 120 118 117 116 116 116 116 114 112 110 107 105 104 103 101 100 100 98 94 93 97 99 97 95 93 89 83 81 81 80 77 75 74 75 73 72 71 70 68 65 62 59 56 56 56 55 53 52 50 47 45 44 43 42 41 40 37 35 34
34 38 41 45 49 53 57 61 66 72 76 79 82 85 88 88 87 89 91 92 93 98 105 112 117 118 120 121 120 118 117 117 117 118 117 114 113 110 108 107 107 105 103 102 102 98 95 96 99 99 97 96 94 88 83 81 83 83 78 76 76 76 75 75 73 70 67 63 60 59 58 57 56 54 52 50 49 48 47 45 43 42 42 41 38 37
29 32 35 39 42 46 50 55 61 66 70 74 78 82 85 86 85 87 89 91 90 92 97 105 112 116 119 121 121 120 118 118 118 118 118 117 115 113 111 111 110 109 107 105 104 102 99 98 99 101 100 99 96 93 87 83 83 85 83 80 78 78 79 79 77 75 70 65 61 61 60 59 58 56 53 52 51 51 50 48 46 44 44 43 41 40
25 28 31 34 37 39 43 49 55 60 65 69 73 78 82 83 83 84 86 88 88 89 92 97 105 112 116 120 122 121 120 119 119 119 119 119 117 116 114 113 113 112 111 109 106 104 102 101 100 101 103 102 99 96 91 85 82 83 84 84 82 81 81 81 80 78 75 69 64 63 63 62 61 59 58 56 55 54 53 51 49 47 45 45 44 43
23 25 28 31 33 35 38 42 48 53 58 63 68 73 77 80 81 82 82 84 86 87 89 92 98 105 112 117 120 122 121 120 120 120 120 120 119 118 117 116 116 115 114 113 110 107 105 103 101 101 103 104 103 100 95 88 83 82 83 85 85 84 83 82 81 79 77 73 69 66 66 66 64 63 61 60 59 58 57 54 52 50 48 47 47 46
22 24 26 28 30 32 35 38 42 46 51 57 62 68 72 76 78 79 79 81 83 85 87 89 92 98 105 112 117 121 122 122 121 121 121 121 120 120 119 118 117 118 118 116 114 111 109 107 104 101 102 104 104 103 99 93 88 85 85 86 86 85 84 84 82 79 77 75 72 69 69 69 67 66 64 63 61 61 60 58 56 53 51 49 48 47
22 24 26 27 28 31 33 36 39 42 45 50 55 61 67 71 74 75 76 77 80 82 84 86 89 93 99 106 113 118 121 122 122 121 121 122 121 121 121 120 119 119 119 119 117 115 112 110 109 106 103 103 104 103 101 98 94 90 88 87 87 86 85 85 83 80 78 77 74 72 71 70 68 65 64 63 62 61 61 61 59 56 53 51 50 48
22 23 25 26 28 30 32 35 37 39 42 46 49 54 60 65 69 71 72 74 76 78 81 84 87 90 94 100 107 114 119 122 123 122 121 122 122 122 122 122 121 120 121 121 120 119 116 113 112 111 108 105 103 103 103 103 100 96 92 89 89 88 86 85 84 81 80 79 77 75 73 70 67 63 60 60 60 59 60 61 60 58 56 53 51 50
Wind_Direction
229 229 229 229 229 229 229 230 231 232 233 233 233 233 233 233 234 234 235 236 237 239 240 241 241 241 242 244 245 247 248 248 248 249 250 250 250 249 249 248 245 249 254 258 268 283 294 297 301 307 311 313 311 314 321 321 308 250 205 188 177 166 156 144 133 126 123 124 131 142 143 136 132 127 124 119 109 102 101 101 98 97 96 95 94 91
228 228 228 229 229 229 229 230 231 231 232 233 234 234 234 233 233 234 235 236 237 238 239 241 242 243 244 244 245 246 247 248 248 249 249 249 249 248 248 247 245 247 252 256 263 274 287 291 294 299 304 307 305 307 314 314 301 255 214 195 183 172 159 145 134 127 126 126 127 137 145 143 141 140 134 126 118 112 108 107 101 97 98 98 99 98
226 227 228 229 229 229 229 229 230 230 231 232 233 235 235 234 233 233 234 236 238 238 237 239 240 242 244 245 246 246 246 246 247 248 248 248 248 247 246 246 246 248 252 256 260 268 280 285 286 290 296 299 298 298 306 308 295 255 220 202 189 178 165 151 142 137 132 127 125 131 136 138 144 153 144 131 126 122 117 114 108 103 102 102 103 103
225 226 228 228 228 229 229 229 229 230 230 231 232 234 235 235 233 233 233 234 237 238 237 237 239 240 242 243 245 246 246 247 247 247 248 247 247 246 244 244 246 249 252 255 258 264 274 279 280 283 287 290 290 291 298 303 290 255 223 207 196 186 175 163 154 150 143 132 127 129 131 124 133 157 149 136 131 129 126 123 117 110 106 105 107 106
224 226 228 228 228 229 229 230 230 230 230 231 232 234 235 235 234 233 232 232 235 238 238 236 236 238 239 241 243 245 247 247 248 248 248 248 247 246 245 244 245 247 251 254 257 263 269 272 274 277 279 281 282 284 292 298 290 260 227 212 203 196 187 178 172 169 167 163 151 144 151 136 114 150 151 146 139 137 136 131 124 116 110 108 108 107
225 227 227 228 228 229 229 229 229 229 229 230 232 233 234 235 234 234 233 233 234 237 238 238 236 236 238 240 242 243 244 245 246 246 247 246 246 246 246 245 245 246 249 253 256 261 264 267 269 270 271 272 272 277 286 293 289 265 233 216 209 205 199 192 190 191 194 202 206 208 227 245 225 159 154 153 147 143 142 138 132 125 116 111 108 106
226 227 227 228 228 229 229 229 229 229 229 230 232 233 233 234 234 234 233 233 234 235 237 239 238 236 236 239 240 241 242 242 242 242 243 243 244 244 244 244 244 245 248 251 254 257 260 262 263 264 264 263 263 269 279 284 281 265 239 222 214 212 210 207 204 205 207 213 222 232 245 250 232 189 167 160 154 150 147 144 140 132 122 115 112 109
226 227 227 228 229 229 229 229 230 230 229 230 232 233 233 234 234 233 233 233 233 234 235 237 238 238 236 236 239 241 242 242 241 241 241 241 242 241 242 242 243 244 246 249 252 254 255 257 258 258 256 254 254 259 267 272 267 255 239 226 219 217 217 216 215 215 215 216 222 229 235 237 226 203 181 170 167 165 157 151 145 138 129 122 118 116
227 227 227 228 229 229 230 230 230 230 230 231 232 233 234 234 233 233 232 232 232 233 234 234 235 237 236 235 237 241 244 243 242 242 242 242 242 241 241 241 242 243 245 247 250 252 252 253 252 250 248 246 246 249 255 260 255 246 237 227 224 221 220 220 220 220 220 218 218 222 225 225 217 204 192 183 181 179 168 158 151 145 138 131 126 122
226 227 227 228 228 229 229 229 229 230 230 231 231 233 234 234 234 233 232 231 231 232 233 234 234 234 235 235 236 239 242 242 242 243 244 243 243 242 241 241 241 242 243 245 247 249 248 248 246 243 241 239 239 242 246 252 249 241 235 228 227 226 221 220 220 220 219 216 215 217 219 217 212 205 199 194 191 187 176 165 158 153 146 139 132 125
227 227 227 228 228 229 229 229 229 229 230 230 231 232 233 234 234 233 232 232 231 230 232 233 234 233 233 233 234 235 237 239 240 240 241 242 243 243 242 241 241 241 241 242 243 244 243 242 240 237 234 232 234 236 238 242 240 234 228 224 227 228 222 217 216 215 212 208 206 207 210 211 209 206 203 201 198 191 183 173 166 159 154 148 140 131
227 228 228 228 228 229 229 229 229 230 230 231 230 231 232 233 234 233 233 232 230 229 230 232 233 233 233 232 232 234 235 236 236 236 238 239 240 241 240 239 238 238 238 237 237 238 237 236 235 231 227 227 230 233 232 232 231 227 221 219 223 227 223 217 213 208 202 198 198 200 205 208 208 207 206 206 205 199 189 181 172 166 161 158 152 145
227 227 228 229 229 229 230 230 230 230 231 232 231 231 231 233 233 233 232 232 230 229 228 229 231 232 232 232 233 234 235 235 234 235 236 238 239 239 239 237 235 235 235 234 232 232 231 231 229 223 222 223 225 228 228 226 226 225 220 217 219 222 221 218 213 205 198 196 196 196 201 206 208 208 208 207 208 206 198 189 181 173 169 168 164 157
226 227 228 228 228 229 230 230 230 231 231 233 233 232 232 232 233 233 232 232 231 230 228 228 229 230 230 231 232 233 235 235 235 233 235 237 238 238 238 237 234 232 232 231 230 227 226 226 222 216 217 219 221 224 224 222 224 225 222 217 216 217 215 213 211 205 198 195 196 196 199 204 207 209 209 209 208 207 204 197 190 183 177 175 172 166
226 226 227 228 228 228 229 230 230 230 231 232 233 233 233 232 233 233 232 231 231 231 229 227 227 228 229 230 231 232 233 235 235 233 232 235 236 236 235 236 235 232 230 229 228 225 222 221 217 212 214 217 218 221 221 220 221 223 224 220 216 215 211 207 207 206 200 197 197 198 200 203 205 208 209 210 211 209 206 203 199 193 187 183 180 176
227 227 227 227 227 228 228 229 230 230 230 230 231 232 233 232 232 233 232 232 231 231 231 229 227 227 227 228 230 231 231 232 233 232 230 230 233 234 234 235 235 234 232 228 225 222 218 218 215 210 211 214 216 219 220 219 220 221 223 221 219 216 209 203 203 204 203 200 199 199 201 204 206 207 209 211 214 214 211 209 207 203 197 193 190 188
227 228 228 228 227 227 228 228 229 229 229 229 230 231 232 232 232 232 232 231 231 231 232 231 228 226 225 225 227 230 230 231 232 233 231 228 230 234 234 234 234 234 233 229 223 218 214 215 216 212 210 213 215 218 220 219 219 219 220 220 220 218 211 203 199 200 202 202 201 201 202 205 207 208 209 211 214 216 216 216 215 213 209 203 200 199
228 228 228 228 228 228 227 228 229 229 229 229 229 230 231 231 231 231 231 231 230 231 232 232 230 227 225 225 227 229 231 231 232 234 235 232 231 235 237 235 233 233 233 229 221 213 210 213 216 213 211 211 213 217 220 219 217 218 219 218 219 219 214 206 199 198 201 202 203 203 203 205 208 210 210 211 212 215 217 219 222 223 220 215 213 211
229 229 229 229 229 228 228 228 229 229 229 229 229 229 230 230 230 230 230 230 230 230 231 233 232 229 227 226 227 228 230 232 232 233 236 235 232 234 237 237 234 231 229 226 219 211 208 211 214 214 211 210 211 215 218 218 216 217 221 220 219 220 217 210 203 200 201 203 204 205 205 205 208 211 212 214 215 215 217 220 224 228 230 229 227 225
228 229 229 229 229 229 228 228 228 229 229 229 228 229 230 230 230 230 229 229 229 229 230 232 233 231 228 228 228 228 228 229 230 231 234 235 233 232 234 236 235 231 227 224 219 213 211 212 213 214 212 210 211 215 219 219 215 215 221 222 221 222 219 213 208 204 203 204 206 207 207 206 207 210 214 216 218 219 219 221 225 230 236 238 237 237
227 228 228 229 229 229 229 228 228 229 229 229 228 228 229 230 230 230 230 229 228 227 228 230 232 231 229 228 228 228 227 227 228 229 230 232 233 232 231 233 234 232 228 223 219 216 214 213 212 212 212 212 213 216 220 220 215 212 217 221 221 222 222 219 214 210 208 207 208 209 209 208 207 209 213 217 220 221 222 223 226 231 237 241 242 244
226 227 228 228 228 228 229 229 229 229 229 229 228 228 228 229 230 230 230 230 229 228 227 228 230 231 229 227 227 227 227 226 226 227 227 229 231 232 230 229 230 231 229 223 218 217 217 215 212 211 212 213 214 216 218 219 216 212 214 219 221 221 223 222 219 215 213 213 213 214 214 212 210 209 211 215 219 222 225 227 229 233 237 241 245 248
226 227 227 228 228 228 228 228 228 229 229 229 229 228 228 228 229 229 229 230 230 229 228 229 230 230 229 227 225 225 225 224 224 224 225 226 228 231 231 228 226 228 228 223 218 216 216 217 215 212 212 213 214 216 217 219 218 214 213 216 220 222 221 221 220 217 215 215 216 218 219 218 217 215 214 214 216 220 224 227 230 233 236 239 243 248
227 227 228 228 229 228 228 228 228 229 229 229 229 228 228 228 228 228 228 229 229 229 228 229 230 231 231 228 225 224 223 223 222 222 223 224 226 229 231 229 226 225 226 224 220 216 215 218 218 215 214 214 215 217 218 218 217 215 214 215 219 222 221 218 219 217 214 214 216 218 222 223 222 222 220 219 218 219 222 226 229 232 234 237 241 246
228 228 228 229 229 229 229 229 228 228 229 229 229 229 228 228 228 228 228 228 228 228 228 228 228 230 231 230 227 225 223 221 221 221 221 222 223 226 230 230 227 225 224 225 223 218 215 217 220 218 216 216 216 218 219 218 216 215 215 216 217 222 223 218 217 217 216 214 215 217 221 225 226 226 226 225 225 224 224 226 229 232 234 238 242 246
228 228 229 230 230 230 230 229 229 229 229 229 230 229 228 228 228 228 228 228 228 228 228 227 227 228 230 230 228 226 224 221 220 220 221 220 221 223 227 230 230 226 224 225 224 220 216 218 222 223 221 219 218 220 220 217 216 216 216 216 217 220 222 219 216 216 217 216 217 219 222 226 228 229 230 230 230 232 232 232 233 234 236 239 244 248
228 228 229 230 230 230 230 230 230 230 230 230 230 230 230 229 228 228 228 228 228 228 228 227 226 226 228 228 228 227 225 222 220 220 220 220 220 220 224 228 230 228 225 223 224 221 216 216 220 224 225 223 222 223 223 219 218 218 218 217 218 220 222 220 216 213 214 215 218 221 224 227 230 232 232 233 234 236 238 240 241 241 241 243 246 249
229 229 229 230 231 230 229 229 229 229 229 229 230 230 230 230 229 229 228 228 228 228 228 227 226 226 226 226 227 227 226 223 221 220 220 220 219 219 221 224 227 229 226 221 220 221 218 213 215 219 222 223 223 225 224 221 220 221 221 220 221 223 223 222 218 213 212 213 216 220 223 226 229 232 233 234 236 238 240 243 245 248 249 249 249 251
229 229 230 231 231 231 230 229 229 229 229 229 229 229 230 230 230 229 229 229 229 228 227 227 227 226 226 225 226 226 226 224 222 220 220 219 219 219 220 221 224 227 228 224 219 219 220 215 213 215 218 219 222 224 222 219 218 220 221 222 223 224 224 224 222 217 213 214 216 219 222 226 228 229 230 230 233 236 239 242 245 249 253 255 255 255
229 229 230 231 232 232 231 230 229 229 228 228 228 228 229 229 229 229 229 229 229 229 227 227 226 226 226 226 225 225 225 224 223 221 220 219 218 218 219 220 221 223 228 228 222 216 218 218 214 212 215 216 218 221 221 217 215 216 218 220 223 224 225 226 225 223 219 217 218 219 221 225 227 227 226 224 224 227 232 235 239 242 246 250 253 255
229 229 229 230 231 233 233 232 230 229 228 228 228 228 228 228 228 229 229 228 229 229 228 226 226 226 226 226 226 225 224 224 223 221 221 220 218 217 217 218 219 221 224 228 227 219 216 218 216 212 214 216 215 216 218 216 215 215 215 215 218 221 223 225 227 229 229 225 220 219 220 223 225 226 225 224 222 222 224 227 230 233 236 239 242 245
230 230 229 230 231 232 233 233 232 230 229 228 228 228 228 228 228 228 228 228 228 228 228 226 226 225 225 226 226 225 224 223 222 221 220 220 219 218 217 216 217 219 221 225 229 224 216 216 217 213 213 216 216 214 215 216 216 216 215 214 215 217 219 222 226 229 232 232 228 224 221 221 223 225 226 226 225 223 223 223 225 229 232 233 233 235
231 231 230 230 230 231 232 233 233 232 230 229 228 228 228 228 228 228 228 228 228 227 227 226 225 224 224 225 226 225 224 223 222 221 220 219 219 218 217 216 216 217 218 221 226 228 220 214 216 215 213 214 217 215 214 215 216 216 216 215 215 216 216 220 228 232 232 232 232 229 225 222 222 225 227 228 228 226 224 223 224 226 229 232 233 233
231 231 232 231 230 231 231 232 233 233 232 230 229 228 228 228 228 228 228 228 228 227 227 226 225 224 224 225 225 225 224 223 222 221 219 219 218 218 217 217 216 215 216 217 221 227 225 217 214 216 215 214 216 217 216 215 216 216 215 214 214 214 212 213 223 233 236 235 233 230 227 223 222 225 227 229 230 230 228 227 227 227 229 232 235 235
232 231 232 232 231 231 232 232 232 233 233 231 230 228 228 228 228 228 228 228 228 227 227 227 226 224 223 224 225 225 224 224 223 221 219 218 218 218 217 217 217 215 215 216 217 222 225 220 214 214 216 214 214 217 218 216 216 216 215 213 213 212 210 207 208 218 229 234 235 233 228 225 223 224 226 228 230 232 233 232 233 233 232 234 238 241
234 233 232 232 232 232 233 232 232 232 233 233 231 229 228 227 227 227 227 227 227 227 227 226 226 225 223 223 224 225 224 224 223 222 219 218 218 218 217 217 217 216 215 216 216 218 221 221 216 213 214 214 212 215 219 219 218 219 217 215 213 212 211 209 206 208 216 224 230 232 230 226 225 225 225 227 228 230 233 235 236 236 237 238 241 245
232 233 233 232 231 231 233 233 232 232 233 234 233 231 229 228 227 227 227 227 227 227 226 226 226 226 224 223 224 224 224 224 223 222 220 217 218 219 218 217 217 217 216 216 216 217 219 221 219 214 213 214 212 212 217 219 220 222 221 217 214 213 212 213 211 209 212 217 224 228 229 228 227 227 227 227 228 229 232 235 237 237 237 239 241 243
229 231 232 233 232 231 231 232 232 231 231 233 234 233 231 229 227 226 226 226 226 226 226 226 226 226 225 223 223 224 224 224 222 221 220 217 217 219 219 217 216 217 218 217 217 217 218 220 221 217 213 213 211 210 212 214 216 220 220 217 214 214 214 215 215 214 215 217 222 225 227 228 229 229 230 230 231 232 232 235 236 237 237 241 243 245
229 229 230 231 232 232 231 231 231 230 230 232 233 233 232 230 228 226 226 225 225 226 226 226 226 226 225 224 223 223 224 224 222 221 220 217 216 218 220 218 216 217 218 219 218 217 217 218 220 219 215 213 211 210 211 212 215 219 219 216 214 214 215 216 217 218 219 220 223 225 227 230 232 232 231 232 233 234 235 236 237 237 239 243 246 247
231 230 229 230 231 232 233 232 231 230 229 231 233 233 232 231 229 227 226 225 225 225 225 225 225 225 225 224 223 223 224 224 223 221 220 217 215 216 219 219 217 216 218 218 218 218 217 217 219 218 215 213 212 211 210 210 213 216 216 215 214 215 216 216 217 219 221 222 224 226 227 230 235 235 234 234 234 235 236 238 240 241 241 243 245 247
233 232 231 229 229 231 232 233 233 231 230 231 233 234 233 231 230 228 226 225 225 224 224 225 225 225 225 224 223 223 223 224 224 222 220 218 215 214 217 218 218 217 217 216 218 218 217 217 218 217 215 214 213 211 210 211 212 214 214 214 214 215 215 216 217 219 221 223 227 229 229 230 233 236 236 235 235 236 237 239 242 243 243 243 244 244
235 234 233 231 229 229 231 232 233 233 231 230 233 235 235 233 232 230 227 225 225 224 223 223 224 224 225 224 223 223 223 224 224 223 220 218 216 213 215 217 218 218 217 215 216 218 218 217 217 216 215 215 214 212 211 212 213 214 214 214 214 215 216 216 218 219 220 222 226 228 229 230 231 233 235 235 235 235 236 237 240 242 244 243 240 239
235 235 234 233 231 229 229 230 232 232 232 231 232 234 235 234 233 231 229 226 224 224 223 223 223 223 224 224 223 222 222 223 224 224 222 219 217 214 213 215 217 218 218 216 214 216 217 217 217 216 215 216 216 213 212 212 213 214 214 213 214 216 216 216 218 219 219 221 223 223 225 228 230 232 234 234 235 235 235 236 238 240 243 243 239 238
235 235 235 234 233 230 229 229 229 231 231 232 233 234 235 234 232 231 230 228 225 223 223 223 222 222 223 224 223 222 221 222 223 224 223 221 218 215 213 214 216 217 218 217 215 215 217 218 218 216 215 216 217 216 214 214 214 215 214 213 213 215 217 217 218 220 220 221 222 222 224 226 229 231 234 235 236 237 237 237 236 237 240 241 239 239
233 234 234 235 234 233 230 228 228 229 229 230 232 234 235 234 232 230 230 229 226 223 223 223 222 221 222 223 223 222 221 221 222 223 223 222 220 216 213 213 215 217 218 218 217 215 215 218 220 218 216 216 217 217 217 217 216 215 214 214 213 215 217 218 218 220 221 222 221 221 223 226 228 230 233 235 237 238 239 239 238 237 238 240 240 240
231 232 233 233 234 234 233 230 228 228 228 229 230 232 234 234 232 230 230 229 228 224 222 222 222 221 220 222 223 222 221 221 221 222 222 222 221 218 214 213 214 216 217 218 218 216 214 217 220 220 218 217 217 217 217 217 217 215 215 215 214 215 217 218 218 220 222 223 222 222 223 226 228 230 233 236 237 237 238 239 240 239 239 239 240 241
231 231 232 232 232 232 233 233 231 229 228 228 228 230 232 233 232 231 229 229 228 226 223 222 222 221 220 220 222 222 221 220 220 221 221 221 221 220 216 213 213 215 216 217 218 217 215 216 219 221 220 218 217 216 216 215 215 214 214 215 216 217 218 218 219 220 222 224 224 224 225 226 228 231 233 235 236 237 237 238 240 240 240 240 241 241
234 232 232 232 231 231 231 233 233 232 230 228 228 229 231 232 232 231 229 228 228 227 224 222 221 221 221 220 221 222 221 220 220 220 221 221 221 220 218 215 213 214 216 217 217 217 216 216 217 220 221 220 217 216 215 214 214 214 214 215 217 218 219 220 221 221 222 223 225 226 226 227 229 231 233 235 236 237 237 238 239 240 239 240 241 242
241 236 234 231 230 229 229 231 233 233 232 230 229 230 231 232 232 231 230 228 227 227 225 223 221 220 220 220 220 221 221 221 220 219 220 221 220 220 219 217 214 213 215 216 217 217 217 216 216 218 221 221 219 217 215 214 214 215 215 214 215 217 219 221 222 222 222 223 224 226 227 228 229 232 234 235 236 237 237 236 237 238 239 240 242 244
244 241 237 234 231 228 228 229 230 232 232 231 231 230 231 232 232 232 231 229 228 227 225 223 221 220 219 220 220 220 220 221 220 219 219 220 220 220 219 219 216 213 214 216 217 217 217 216 216 216 219 220 220 218 216 215 215 216 215 214 214 216 218 220 222 223 223 223 224 225 226 228 230 231 233 234 235 236 236 235 234 236 239 241 242 244
243 243 240 237 234 230 228 227 229 230 231 231 231 231 232 232 232 232 231 230 229 227 226 224 222 220 219 219 219 219 219 220 220 219 219 219 220 220 219 219 217 215 214 215 216 217 217 217 216 216 217 219 220 219 217 216 217 217 216 215 214 215 217 220 221 222 223 224 224 224 225 227 228 229 229 230 232 234 235 234 234 237 239 240 242 243
Height
10886 10891 10895 10895 10897 10901 10906 10909 10912 10918 10921 10925 10928 10930 10933 10935 10937 10941 10945 10947 10949 10952 10955 10958 10962 10964 10967 10970 10972 10975 10977 10979 10980 10982 10984 10986 10988 10990 10992 10993 10994 10994 10996 10998 11000 11001 11001 11003 11003 11003 11003 11003 11002 11002 11001 11000 11000 11000 11001 11002 11002 11003 11004 11004 11005 11006 11007 11007 11008 11008 11008 11008 11008 11008 11009 11009 11009 11009 11009 11009 11009 11009 11008 11008 11007 11007
10881 10885 10885 10886 10890 10896 10901 10904 10908 10913 10916 10920 10923 10924 10927 10930 10934 10938 10940 10943 10946 10949 10952 10955 10959 10962 10965 10967 10969 10971 10973 10974 10976 10979 10981 10983 10985 10987 10989 10991 10992 10992 10994 10996 10998 11000 11001 11001 11002 11003 11003 11002 11002 11002 11001 11000 11000 11000 11001 11002 11002 11003 11004 11004 11005 11006 11007 11008 11009 11010 11010 11009 11010 11010 11010 11010 11010 11010 11010 11010 11010 11010 11010 11009 11009 11009
10876 10876 10874 10878 10885 10890 10894 10898 10902 10907 10911 10915 10917 10918 10920 10924 10930 10934 10936 10939 10940 10943 10949 10953 10956 10960 10962 10964 10966 10967 10969 10970 10972 10975 10977 10979 10981 10984 10987 10988 10989 10990 10991 10993 10996 10999 11000 11000 11001 11002 11002 11002 11002 11001 11001 11000 11000 11000 11001 11002 11002 11003 11004 11004 11005 11006 11007 11008 11009 11010 11011 11010 11011 11011 11011 11011 11011 11011 11012 11012 11012 11012 11012 11011 11011 11011
10866 10863 10865 10872 10879 10883 10888 10892 10897 10903 10907 10910 10911 10912 10913 10918 10925 10929 10932 10935 10935 10937 10945 10950 10953 10957 10958 10959 10961 10963 10965 10967 10969 10971 10973 10976 10978 10981 10983 10985 10987 10988 10989 10990 10994 10997 10999 10999 11000 11001 11002 11001 11001 11001 11000 11000 11000 10999 11000 11001 11002 11003 11004 11004 11005 11006 11007 11008 11009 11010 11011 11011 11011 11011 11012 11012 11012 11012 11013 11013 11014 11013 11013 11013 11013 11013
10854 10854 10860 10868 10873 10878 10883 10887 10893 10898 10901 10904 10905 10905 10908 10913 10919 10923 10928 10931 10932 10933 10940 10946 10950 10953 10953 10955 10958 10961 10962 10964 10965 10967 10969 10972 10974 10977 10980 10982 10984 10986 10987 10988 10991 10995 10997 10998 10999 11000 11001 11001 11000 11000 11000 10999 10999 10999 10999 11000 11002 11003 11003 11004 11005 11006 11007 11009 11010 11010 11011 11012 11012 11012 11013 11013 11013 11013 11014 11014 11015 11015 11015 11015 11015 11014
10845 10849 10857 10862 10866 10871 10876 10881 10886 10890 10894 10898 10898 10898 10901 10906 10912 10919 10924 10928 10930 10932 10935 10941 10946 10949 10950 10952 10955 10957 10958 10960 10962 10963 10965 10968 10970 10973 10976 10979 10981 10983 10984 10985 10988 10992 10995 10996 10997 10998 10999 11000 10999 10999 10999 10999 10998 10998 10999 10999 11001 11002 11003 11004 11004 11006 11007 11008 11010 11011 11012 11012 11012 11013 11013 11014 11014 11014 11015 11015 11016 11016 11016 11016 11016 11015
10839 10845 10851 10854 10859 10864 10870 10874 10878 10883 10889 10892 10890 10889 10894 10900 10907 10914 10920 10925 10928 10930 10933 10937 10941 10945 10949 10950 10951 10953 10954 10957 10958 10959 10961 10963 10966 10969 10972 10974 10977 10980 10982 10983 10985 10989 10992 10994 10995 10996 10997 10998 10998 10998 10998 10998 10997 10997 10998 10999 11000 11001 11002 11003 11003 11005 11006 11008 11009 11011 11012 11012 11013 11013 11014 11014 11015 11015 11016 11016 11016 11017 11017 11017 11017 11017
10832 10839 10844 10847 10853 10858 10863 10868 10871 10876 10882 10884 10881 10882 10888 10894 10901 10908 10915 10921 10925 10927 10930 10933 10936 10940 10944 10947 10948 10949 10951 10953 10953 10954 10957 10959 10962 10965 10968 10970 10973 10976 10978 10980 10982 10986 10989 10991 10992 10994 10995 10996 10997 10997 10997 10997 10996 10996 10997 10998 10999 10999 11000 11001 11002 11004 11005 11007 11009 11010 11011 11012 11013 11014 11014 11015 11015 11016 11016 11017 11017 11017 11018 11018 11018 11018
10826 10832 10836 10841 10847 10851 10856 10860 10864 10870 10875 10875 10874 10877 10882 10887 10895 10903 10909 10915 10920 10923 10926 10929 10932 10935 10939 10943 10946 10947 10946 10947 10948 10951 10953 10956 10958 10961 10964 10966 10969 10972 10975 10977 10979 10983 10986 10988 10990 10992 10993 10994 10995 10996 10996 10996 10995 10995 10996 10997 10997 10998 10999 11000 11001 11003 11004 11006 11008 11010 11011 11012 11013 11014 11015 11015 11016 11016 11017 11017 11017 11018 11018 11018 11019 11019
10818 10824 10828 10834 10839 10842 10846 10850 10856 10863 10866 10866 10869 10873 10875 10880 10889 10897 10903 10910 10915 10920 10923 10925 10928 10931 10934 10938 10942 10942 10940 10940 10944 10948 10950 10952 10954 10957 10960 10963 10966 10968 10971 10973 10976 10979 10983 10985 10987 10989 10991 10992 10993 10994 10995 10994 10994 10994 10995 10996 10996 10997 10998 10999 11000 11002 11004 11006 11007 11009 11010 11012 11013 11014 11015 11015 11016 11016 11017 11017 11018 11018 11019 11019 11019 11020
10811 10816 10820 10825 10828 10832 10837 10843 10850 10855 10856 10858 10863 10867 10869 10874 10882 10890 10897 10904 10911 10916 10918 10920 10923 10927 10930 10935 10937 10935 10934 10937 10942 10945 10946 10948 10951 10954 10957 10960 10963 10965 10968 10970 10973 10976 10979 10982 10984 10986 10988 10990 10991 10992 10993 10993 10993 10993 10993 10995 10995 10996 10997 10998 10999 11001 11003 11005 11006 11008 11009 11011 11012 11013 11014 11015 11016 11016 11017 11018 11018 11019 11019 11019 11020 11020
10805 10809 10813 10816 10820 10826 10831 10837 10843 10847 10848 10851 10856 10861 10864 10867 10874 10882 10890 10898 10905 10910 10913 10916 10919 10923 10928 10931 10930 10928 10930 10934 10938 10940 10942 10945 10947 10950 10954 10957 10960 10962 10964 10967 10969 10972 10975 10978 10981 10984 10986 10987 10989 10990 10991 10992 10991 10991 10992 10993 10994 10995 10996 10998 10999 11000 11002 11003 11005 11007 11008 11010 11011 11013 11014 11015 11016 11016 11017 11018 11018 11019 11019 11020 11020 11021
10796 10801 10804 10808 10814 10821 10825 10830 10836 10839 10842 10845 10850 10855 10858 10862 10867 10875 10883 10890 10898 10903 10907 10911 10915 10919 10924 10925 10923 10924 10926 10929 10933 10937 10940 10942 10944 10947 10951 10954 10957 10960 10962 10964 10966 10969 10972 10974 10978 10981 10983 10985 10987 10988 10989 10990 10990 10990 10990 10991 10993 10994 10996 10998 10999 11000 11001 11003 11004 11006 11008 11009 11011 11012 11014 11015 11016 11017 11017 11018 11018 11019 11019 11020 11021 11021
10786 10791 10794 10799 10807 10813 10817 10821 10827 10833 10837 10840 10843 10848 10853 10856 10861 10868 10876 10883 10889 10894 10900 10906 10910 10915 10918 10918 10918 10918 10919 10924 10930 10935 10938 10939 10942 10946 10948 10951 10953 10956 10959 10961 10964 10966 10968 10971 10975 10978 10980 10982 10985 10987 10988 10988 10989 10988 10989 10990 10991 10993 10995 10997 10999 11000 11001 11002 11004 11005 11007 11008 11010 11012 11013 11014 11015 11016 11017 11018 11018 11019 11019 11020 11021 11021
10778 10781 10785 10792 10799 10804 10807 10812 10818 10825 10830 10832 10834 10840 10846 10851 10856 10862 10868 10875 10880 10884 10891 10898 10904 10909 10912 10913 10911 10910 10914 10921 10927 10932 10935 10937 10940 10943 10946 10947 10950 10953 10956 10959 10961 10964 10966 10968 10972 10976 10977 10980 10982 10985 10986 10987 10987 10987 10988 10989 10990 10991 10993 10996 10998 10999 11000 11001 11003 11004 11006 11007 11009 11011 11013 11014 11015 11016 11017 11018 11018 11019 11019 11020 11021 11021
10769 10771 10775 10783 10789 10793 10799 10804 10809 10814 10818 10821 10825 10831 10837 10843 10850 10855 10861 10867 10872 10877 10883 10891 10898 10903 10906 10905 10902 10903 10909 10915 10921 10926 10932 10935 10937 10940 10943 10944 10948 10951 10953 10956 10958 10961 10964 10966 10969 10972 10975 10977 10980 10982 10985 10986 10986 10986 10987 10987 10988 10990 10992 10994 10997 10999 11000 11001 11002 11003 11005 11007 11008 11010 11011 11013 11014 11015 11016 11017 11018 11019 11020 11020 11021 11021
10758 10761 10767 10774 10779 10784 10790 10795 10798 10802 10806 10812 10819 10823 10828 10836 10842 10847 10852 10859 10865 10871 10876 10882 10889 10895 10896 10895 10894 10898 10905 10912 10918 10925 10930 10933 10936 10938 10940 10943 10946 10948 10951 10953 10956 10959 10961 10964 10966 10970 10972 10975 10977 10981 10983 10985 10985 10985 10985 10986 10987 10989 10991 10992 10995 10997 10999 11000 11001 11002 11004 11005 11007 11009 11010 11012 11013 11014 11016 11017 11018 11019 11020 11020 11021 11021
10748 10752 10758 10764 10768 10774 10781 10786 10787 10789 10796 10805 10812 10815 10820 10825 10831 10837 10843 10850 10858 10864 10868 10872 10879 10883 10884 10886 10891 10898 10905 10912 10920 10926 10929 10934 10937 10937 10938 10941 10944 10946 10949 10951 10954 10956 10959 10961 10963 10966 10970 10972 10975 10978 10981 10983 10984 10983 10983 10984 10986 10987 10989 10991 10993 10995 10997 10999 11000 11001 11002 11004 11006 11008 11009 11010 11011 11013 11014 11016 11017 11018 11019 11020 11020 11021
10736 10742 10748 10753 10757 10762 10770 10775 10776 10779 10787 10796 10803 10806 10809 10814 10821 10828 10835 10843 10851 10857 10861 10864 10867 10872 10877 10884 10893 10900 10906 10912 10918 10923 10926 10931 10935 10936 10936 10939 10942 10945 10947 10948 10950 10953 10955 10957 10960 10963 10966 10970 10973 10975 10978 10980 10981 10982 10982 10983 10984 10986 10988 10990 10992 10993 10995 10997 10999 11000 11001 11003 11005 11007 11008 11009 11010 11011 11012 11014 11016 11017 11018 11019 11020 11021
10723 10730 10736 10741 10745 10750 10758 10763 10765 10769 10778 10785 10792 10797 10801 10806 10813 10821 10828 10836 10842 10848 10853 10855 10854 10861 10873 10883 10890 10897 10903 10908 10913 10918 10922 10926 10930 10932 10934 10936 10939 10941 10943 10945 10947 10950 10952 10954 10957 10961 10964 10968 10970 10973 10975 10977 10979 10981 10981 10982 10983 10985 10987 10988 10989 10990 10992 10994 10996 10998 11000 11002 11003 11005 11006 11008 11009 11010 11011 11013 11014 11015 11017 11018 11019 11020
10711 10717 10724 10728 10733 10738 10745 10750 10754 10761 10768 10774 10782 10789 10794 10799 10807 10814 10820 10826 10831 10837 10842 10843 10842 10853 10869 10878 10884 10891 10898 10904 10908 10913 10917 10920 10923 10926 10929 10932 10935 10937 10939 10941 10944 10946 10948 10951 10954 10958 10962 10965 10968 10970 10972 10974 10977 10979 10979 10980 10982 10984 10985 10986 10987 10989 10991 10993 10994 10996 10998 10999 11001 11003 11005 11006 11008 11010 11011 11011 11012 11013 11015 11016 11018 11019
10699 10705 10710 10714 10718 10724 10730 10738 10746 10752 10757 10764 10772 10780 10786 10792 10800 10807 10811 10817 10823 10829 10833 10833 10835 10846 10859 10869 10878 10886 10893 10899 10903 10908 10911 10915 10917 10920 10923 10927 10929 10931 10934 10937 10940 10942 10945 10948 10951 10955 10958 10961 10964 10966 10968 10971 10974 10976 10977 10978 10980 10981 10983 10985 10986 10988 10990 10991 10993 10994 10996 10997 10999 11000 11002 11004 11006 11008 11009 11010 11011 11012 11013 11015 11016 11018
10688 10694 10697 10699 10704 10711 10717 10727 10735 10741 10747 10754 10761 10770 10778 10784 10790 10797 10802 10808 10815 10822 10826 10826 10831 10840 10850 10861 10871 10878 10884 10891 10897 10902 10905 10909 10912 10913 10916 10920 10923 10925 10928 10932 10936 10938 10942 10945 10949 10952 10955 10957 10960 10962 10966 10968 10971 10973 10975 10976 10978 10979 10981 10983 10985 10987 10988 10990 10992 10993 10995 10996 10997 10998 11000 11002 11004 11006 11008 11009 11011 11011 11012 11013 11015 11016
10678 10684 10686 10687 10693 10700 10707 10716 10724 10730 10737 10743 10749 10760 10769 10774 10781 10787 10792 10799 10804 10810 10815 10819 10828 10836 10842 10852 10863 10870 10876 10884 10890 10895 10899 10903 10905 10906 10908 10912 10917 10920 10924 10928 10932 10936 10939 10943 10946 10950 10952 10954 10957 10960 10963 10965 10968 10971 10973 10974 10976 10977 10980 10982 10983 10985 10986 10988 10990 10992 10994 10995 10996 10997 10998 11000 11002 11003 11006 11008 11009 11010 11011 11013 11013 11014
10668 10673 10676 10677 10682 10689 10696 10705 10713 10720 10726 10732 10739 10750 10758 10765 10772 10777 10782 10789 10793 10798 10805 10813 10823 10830 10834 10844 10856 10862 10869 10876 10882 10887 10892 10896 10898 10900 10901 10905 10910 10916 10921 10925 10930 10934 10939 10941 10943 10946 10948 10951 10954 10957 10961 10963 10965 10968 10970 10972 10974 10976 10978 10980 10982 10983 10984 10986 10988 10990 10991 10992 10994 10996 10998 10999 11001 11002 11004 11006 11007 11009 11011 11012 11012 11013
10657 10662 10664 10665 10670 10678 10686 10695 10704 10711 10717 10724 10730 10739 10748 10756 10762 10767 10773 10779 10784 10790 10797 10806 10817 10824 10828 10837 10846 10853 10861 10869 10875 10880 10884 10887 10891 10893 10895 10899 10906 10914 10920 10924 10928 10933 10937 10940 10943 10945 10947 10950 10953 10956 10958 10960 10963 10965 10968 10971 10973 10974 10976 10978 10980 10982 10983 10985 10987 10988 10989 10990 10992 10994 10996 10999 11001 11002 11004 11005 11006 11008 11009 11010 11012 11012
10646 10651 10653 10654 10658 10666 10677 10686 10695 10702 10709 10715 10722 10729 10738 10745 10751 10758 10764 10770 10776 10782 10788 10798 10810 10816 10820 10828 10837 10843 10852 10861 10867 10872 10875 10880 10884 10887 10890 10895 10901 10909 10916 10921 10925 10928 10931 10935 10939 10942 10945 10948 10952 10955 10958 10960 10962 10964 10967 10970 10972 10973 10974 10976 10978 10980 10982 10983 10985 10986 10987 10988 10989 10992 10995 10997 10999 11001 11002 11004 11005 11007 11008 11009 11010 11011
10635 10640 10643 10645 10647 10654 10665 10673 10681 10689 10696 10705 10712 10719 10727 10734 10741 10748 10755 10760 10766 10772 10779 10791 10802 10807 10811 10821 10829 10835 10843 10853 10860 10864 10867 10872 10877 10882 10886 10891 10896 10901 10907 10914 10919 10921 10924 10928 10931 10935 10939 10944 10948 10952 10956 10959 10961 10964 10966 10969 10971 10972 10974 10975 10977 10979 10980 10981 10982 10984 10985 10986 10988 10990 10993 10995 10997 10999 11000 11001 11003 11005 11006 11007 11008 11009
10624 10629 10633 10635 10637 10642 10650 10659 10666 10674 10683 10692 10700 10707 10714 10722 10729 10737 10744 10750 10755 10761 10772 10784 10793 10798 10805 10814 10821 10827 10835 10844 10851 10855 10859 10865 10871 10877 10882 10887 10891 10895 10898 10904 10911 10916 10919 10922 10926 10929 10934 10939 10943 10947 10950 10954 10957 10960 10964 10967 10970 10971 10973 10975 10976 10977 10979 10980 10981 10982 10983 10985 10987 10989 10990 10992 10994 10995 10996 10998 11000 11002 11004 11005 11006 11007
10614 10619 10623 10625 10627 10630 10635 10644 10653 10661 10670 10679 10686 10693 10701 10707 10714 10722 10730 10737 10742 10750 10763 10776 10784 10791 10798 10805 10812 10819 10827 10835 10841 10847 10852 10858 10864 10871 10876 10882 10887 10890 10892 10896 10903 10910 10914 10917 10921 10925 10929 10933 10938 10941 10945 10948 10951 10953 10958 10962 10966 10969 10972 10974 10975 10976 10978 10979 10980 10981 10983 10984 10985 10986 10988 10989 10990 10991 10993 10994 10996 10999 11000 11001 11003 11005
10604 10608 10612 10615 10617 10619 10622 10629 10639 10649 10658 10667 10674 10681 10686 10692 10701 10709 10716 10724 10731 10740 10753 10766 10776 10783 10790 10796 10802 10810 10818 10825 10831 10838 10845 10851 10857 10863 10869 10875 10881 10885 10888 10890 10895 10902 10907 10911 10916 10921 10925 10928 10932 10935 10939 10943 10946 10949 10952 10956 10959 10964 10968 10971 10973 10975 10976 10978 10979 10981 10981 10981 10982 10983 10984 10986 10987 10988 10990 10991 10993 10995 10997 10998 11000 11001
10593 10597 10600 10604 10607 10609 10610 10616 10624 10635 10646 10655 10662 10667 10673 10681 10689 10696 10703 10711 10720 10730 10743 10756 10766 10774 10781 10786 10792 10800 10808 10815 10821 10829 10836 10842 10849 10855 10861 10868 10873 10878 10883 10885 10888 10893 10900 10905 10910 10915 10920 10924 10927 10930 10934 10937 10941 10945 10948 10952 10955 10959 10963 10966 10969 10971 10973 10976 10977 10978 10978 10979 10980 10981 10982 10983 10985 10986 10987 10989 10991 10992 10993 10995 10997 10998
10582 10585 10588 10592 10597 10597 10599 10604 10610 10619 10631 10641 10648 10654 10662 10669 10676 10684 10692 10699 10707 10718 10730 10740 10752 10763 10771 10775 10780 10788 10798 10805 10812 10820 10827 10834 10840 10847 10854 10860 10865 10870 10875 10879 10882 10886 10893 10900 10905 10909 10914 10918 10922 10926 10929 10932 10936 10941 10945 10949 10952 10956 10959 10963 10967 10969 10970 10971 10973 10973 10975 10976 10978 10979 10980 10981 10982 10984 10986 10987 10988 10989 10990 10992 10994 10996
10571 10573 10575 10581 10585 10586 10588 10593 10597 10605 10616 10626 10633 10641 10648 10655 10663 10672 10680 10687 10695 10706 10717 10727 10740 10752 10760 10763 10769 10777 10787 10795 10802 10811 10819 10826 10832 10839 10846 10851 10856 10862 10867 10872 10877 10881 10886 10894 10899 10903 10907 10912 10917 10921 10925 10928 10932 10936 10941 10944 10947 10950 10953 10957 10962 10966 10967 10967 10968 10969 10970 10973 10974 10976 10977 10979 10980 10982 10983 10984 10985 10986 10988 10990 10991 10993
10559 10562 10565 10570 10573 10575 10578 10583 10588 10596 10603 10608 10616 10626 10634 10641 10651 10659 10666 10675 10684 10694 10705 10717 10728 10739 10748 10753 10759 10768 10777 10785 10793 10802 10811 10818 10824 10830 10837 10842 10848 10854 10859 10864 10870 10872 10877 10885 10892 10896 10899 10905 10911 10916 10919 10924 10928 10931 10935 10937 10939 10943 10945 10946 10949 10954 10958 10961 10962 10964 10966 10968 10970 10973 10975 10977 10978 10980 10981 10982 10983 10985 10987 10988 10990 10991
10547 10550 10554 10558 10563 10566 10569 10573 10582 10589 10589 10591 10601 10612 10619 10628 10637 10644 10653 10662 10671 10681 10694 10706 10715 10725 10737 10744 10750 10758 10767 10775 10784 10793 10802 10811 10816 10821 10827 10833 10839 10845 10850 10855 10860 10864 10868 10876 10883 10888 10893 10899 10906 10913 10918 10923 10928 10929 10930 10932 10934 10938 10940 10940 10940 10942 10946 10950 10953 10957 10961 10963 10966 10969 10971 10973 10975 10977 10978 10979 10981 10983 10985 10987 10988 10990
10535 10538 10541 10546 10551 10556 10558 10563 10572 10579 10579 10581 10588 10594 10602 10613 10622 10630 10639 10649 10657 10668 10682 10694 10702 10712 10725 10734 10740 10746 10754 10764 10774 10784 10793 10804 10809 10812 10818 10827 10833 10838 10843 10847 10852 10856 10862 10867 10874 10882 10889 10895 10902 10910 10915 10921 10926 10927 10926 10927 10931 10934 10936 10937 10936 10936 10938 10941 10946 10951 10956 10959 10962 10965 10967 10969 10971 10973 10975 10977 10978 10980 10983 10984 10986 10987
10524 10526 10529 10533 10538 10544 10547 10550 10557 10566 10570 10569 10570 10575 10585 10597 10607 10615 10625 10635 10645 10656 10670 10682 10691 10700 10712 10723 10730 10735 10742 10751 10762 10773 10783 10794 10801 10804 10810 10818 10825 10830 10835 10839 10843 10849 10854 10860 10866 10875 10883 10889 10894 10899 10903 10910 10917 10918 10918 10921 10925 10927 10930 10932 10932 10933 10935 10937 10942 10947 10952 10955 10958 10960 10963 10965 10966 10969 10972 10974 10976 10978 10979 10981 10982 10984
10514 10517 10520 10523 10527 10531 10535 10539 10545 10553 10557 10555 10554 10560 10570 10579 10590 10600 10610 10622 10634 10646 10659 10671 10679 10687 10698 10710 10719 10725 10730 10737 10749 10761 10771 10783 10791 10796 10801 10808 10816 10822 10827 10830 10835 10841 10847 10852 10858 10865 10874 10881 10885 10888 10893 10900 10905 10906 10909 10914 10917 10920 10922 10925 10928 10931 10934 10936 10940 10945 10950 10953 10954 10956 10958 10960 10962 10965 10968 10970 10973 10975 10977 10978 10979 10981
10505 10508 10511 10515 10518 10521 10524 10528 10534 10541 10545 10544 10541 10545 10553 10563 10573 10584 10597 10612 10625 10636 10647 10657 10666 10674 10684 10696 10706 10713 10718 10724 10734 10746 10758 10769 10780 10787 10791 10797 10806 10812 10817 10821 10826 10831 10838 10844 10849 10857 10867 10873 10876 10880 10885 10890 10892 10894 10898 10905 10909 10912 10915 10919 10923 10927 10931 10935 10939 10942 10946 10948 10950 10951 10953 10955 10958 10961 10964 10966 10969 10971 10973 10975 10976 10978
10497 10499 10503 10507 10510 10512 10515 10519 10524 10529 10535 10535 10531 10531 10540 10551 10559 10571 10590 10606 10614 10623 10633 10643 10651 10660 10669 10680 10692 10701 10707 10712 10720 10731 10744 10755 10767 10776 10781 10786 10794 10801 10806 10812 10816 10820 10827 10834 10839 10849 10858 10862 10865 10870 10876 10880 10882 10886 10891 10896 10901 10905 10910 10913 10917 10923 10929 10934 10938 10941 10943 10944 10945 10946 10948 10951 10954 10957 10959 10962 10964 10966 10969 10971 10973 10975
10489 10491 10494 10498 10502 10505 10507 10510 10514 10518 10523 10525 10522 10521 10529 10540 10550 10565 10583 10594 10599 10607 10619 10628 10637 10645 10654 10664 10676 10687 10695 10701 10707 10717 10729 10741 10753 10764 10770 10775 10782 10788 10795 10802 10807 10811 10816 10823 10830 10838 10846 10851 10855 10860 10866 10871 10875 10880 10885 10890 10895 10899 10904 10908 10912 10918 10925 10930 10933 10937 10940 10940 10940 10941 10943 10946 10950 10952 10954 10956 10959 10961 10964 10966 10969 10970
10483 10484 10487 10490 10493 10496 10499 10502 10505 10508 10511 10514 10513 10512 10518 10530 10546 10560 10569 10576 10583 10593 10603 10613 10623 10632 10639 10649 10661 10673 10683 10689 10695 10704 10716 10727 10739 10751 10759 10764 10770 10777 10784 10791 10798 10802 10807 10813 10820 10828 10836 10842 10847 10851 10857 10862 10868 10873 10878 10883 10889 10893 10897 10902 10906 10911 10917 10921 10924 10930 10934 10934 10934 10936 10938 10941 10945 10947 10948 10951 10953 10956 10959 10961 10963 10965
10477 10478 10480 10482 10485 10488 10491 10493 10495 10498 10501 10504 10506 10505 10509 10521 10536 10546 10551 10558 10569 10579 10587 10597 10608 10618 10625 10634 10645 10658 10669 10677 10683 10691 10702 10714 10726 10738 10747 10753 10758 10766 10773 10780 10787 10794 10799 10803 10809 10818 10825 10832 10838 10843 10848 10854 10859 10864 10869 10875 10882 10887 10891 10894 10899 10904 10909 10913 10917 10922 10925 10926 10928 10930 10933 10936 10940 10942 10944 10946 10948 10950 10953 10955 10958 10959
10471 10472 10474 10476 10477 10480 10482 10485 10487 10488 10491 10496 10499 10499 10501 10510 10522 10530 10535 10543 10554 10565 10574 10582 10592 10603 10612 10620 10630 10642 10654 10663 10670 10678 10688 10699 10712 10725 10735 10742 10747 10754 10762 10769 10776 10784 10791 10794 10799 10807 10815 10822 10828 10834 10840 10846 10851 10857 10862 10868 10875 10880 10883 10887 10891 10896 10901 10905 10910 10914 10917 10918 10921 10924 10927 10931 10934 10937 10939 10941 10943 10945 10947 10950 10952 10954
10466 10467 10467 10469 10470 10473 10475 10477 10479 10480 10483 10488 10491 10491 10492 10499 10508 10516 10523 10531 10540 10552 10562 10569 10578 10589 10599 10606 10615 10627 10639 10650 10658 10665 10674 10685 10697 10710 10722 10731 10736 10743 10750 10758 10765 10774 10782 10786 10789 10796 10805 10813 10820 10826 10832 10838 10844 10850 10855 10861 10866 10870 10873 10878 10883 10889 10893 10898 10902 10906 10909 10911 10914 10918 10921 10925 10928 10931 10933 10935 10938 10940 10942 10945 10947 10949
10460 10461 10462 10463 10464 10466 10468 10470 10471 10473 10476 10480 10483 10483 10484 10488 10496 10504 10512 10520 10529 10539 10549 10558 10565 10574 10585 10593 10601 10611 10623 10635 10645 10653 10661 10671 10682 10694 10707 10718 10725 10731 10738 10746 10754 10763 10771 10777 10781 10787 10795 10804 10811 10817 10823 10829 10835 10842 10848 10853 10857 10861 10865 10871 10876 10881 10885 10890 10894 10898 10901 10905 10908 10911 10915 10918 10922 10925 10927 10929 10933 10935 10938 10940 10942 10943
10455 10456 10456 10457 10458 10460 10461 10462 10464 10466 10469 10473 10475 10476 10477 10480 10485 10493 10501 10509 10517 10525 10535 10545 10553 10562 10571 10580 10588 10596 10607 10619 10631 10639 10647 10657 10668 10679 10691 10703 10713 10719 10726 10733 10742 10751 10760 10767 10773 10778 10785 10793 10800 10807 10814 10821 10827 10833 10839 10844 10849 10854 10859 10864 10869 10874 10878 10883 10887 10890 10894 10897 10900 10904 10908 10912 10915 10918 10920 10924 10927 10929 10932 10934 10935 10937
10450 10451 10451 10452 10453 10454 10455 10456 10457 10459 10462 10466 10468 10470 10470 10472 10477 10483 10490 10498 10506 10513 10522 10531 10541 10549 10558 10567 10575 10584 10593 10604 10616 10626 10634 10643 10654 10664 10675 10688 10700 10708 10714 10721 10729 10738 10747 10756 10763 10769 10774 10782 10790 10799 10806 10813 10818 10823 10830 10836 10842 10847 10852 10856 10861 10866 10871 10876 10880 10883 10887 10890 10893 10897 10901 10905 10908 10911 10914 10917 10920 10923 10926 10927 10929 10932
10446 10446 10446 10447 10448 10449 10450 10450 10451 10452 10455 10458 10461 10463 10464 10466 10470 10475 10481 10488 10495 10502 10510 10519 10528 10537 10545 10554 10562 10570 10579 10589 10600 10612 10622 10630 10640 10650 10660 10672 10685 10696 10703 10710 10717 10726 10735 10744 10752 10759 10765 10772 10782 10792 10800 10805 10810 10815 10822 10828 10834 10840 10845 10848 10853 10858 10863 10868 10873 10876 10879 10883 10887 10891 10894 10898 10901 10904 10907 10911 10915 10917 10919 10921 10923 10925
10441 10441 10441 10442 10442 10443 10444 10444 10445 10446 10448 10450 10453 10456 10457 10459 10462 10467 10473 10479 10486 10492 10499 10507 10516 10524 10533 10541 10548 10556 10565 10573 10584 10597 10609 10618 10625 10635 10646 10657 10670 10682 10692 10699 10706 10713 10723 10732 10740 10748 10755 10763 10772 10781 10790 10796 10801 10807 10813 10820 10826 10832 10837 10841 10845 10850 10854 10859 10864 10868 10872 10876 10880 10884 10888 10891 10895 10898 10902 10906 10909 10912 10913 10914 10916 10919